Regional Weather Roundup
Issued by NWS

Home | Current Version | Previous Version | Text Only | Print | Product List | Glossary Off
Versions: 1 2 3 4 5 6 7 8 9 10 11 12 13 14 15 16 17 18 19 20 21 22 23 24 25 26 27 28 29 30 31 32 33 34 35 36 37 38 39 40 41 42 43 44 45 46 47 48 49 50

911
ASUS43 KFSD 052102
RWRSD

WEATHER ROUNDUP FOR SOUTH DAKOTA
NATIONAL WEATHER SERVICE SIOUX FALLS SD
300 PM CST FRI FEB 05 2016

NOTE: "FAIR" INDICATES FEW OR NO CLOUDS BELOW 12,000 FEET WITH NO
SIGNIFICANT WEATHER AND/OR OBSTRUCTIONS TO VISIBILITY.


SDZ001>005-009-010-012>017-052200-
NORTHWEST AND NORTH CENTRAL SOUTH DAKOTA

CITY           SKY/WX    TMP DP  RH WIND       PRES   REMARKS
BUFFALO          N/A     43  21  41 W15       30.09F
FAITH            N/A     39  23  52 NW15      30.16F
MOBRIDGE       SUNNY     40  23  50 NW10      30.14S
$$

SDZ012>016-024>037-041>051-057-063-072>074-052200-
SOUTHWEST AND SOUTH CENTRAL SOUTH DAKOTA

CITY           SKY/WX    TMP DP  RH WIND       PRES   REMARKS
RAPID CTY ARPT SUNNY     41  23  48 NW17      30.19F
PIERRE         PTSUNNY   40  27  59 NW17      30.18S
CUSTER         MOSUNNY   33   8  35 VRB6G24   30.15S WCI  28
ELLSWORTH AFB  SUNNY     40  22  49 NW16      30.18F
PHILIP         SUNNY     41  25  53 NW15      30.20F
PINE RIDGE     MOSUNNY   38  24  57 W12       30.22F
WINNER         CLOUDY    36  30  79 NW17G25   30.18S
$$

SDZ004>011-016>023-039-040-052200-
NORTHEAST SOUTH DAKOTA

CITY           SKY/WX    TMP DP  RH WIND       PRES   REMARKS
ABERDEEN       SUNNY     41  24  51 NW12      30.14S
WATERTOWN      MOSUNNY   28  22  78 NW9       30.11S WCI  19
BROOKINGS      FLURRIES  29  24  82 W10       30.12F WCI  20
SISSETON         N/A     34  27  75 NW9       30.12S WCI  27
$$

SDZ017-020-022-023-036>040-048>070-052200-
SOUTHEAST SOUTH DAKOTA

CITY           SKY/WX    TMP DP  RH WIND       PRES   REMARKS
SIOUX FALLS    CLOUDY    29  25  85 SW9       30.15S WCI  20
HURON          CLOUDY    32  28  85 NW12      30.16S WCI  23
CHAMBERLAIN    CLOUDY    34  31  90 N10G21    30.17R WCI  26
MITCHELL       CLOUDY    33  28  81 N8        30.17S WCI  26
YANKTON        CLOUDY    36  27  69 SW5       30.15R
$$

ABBREVIATIONS USED IN REMARKS
   TC - TEMPERATURE IN CELSIUS
  WCI - WIND CHILL INDEX
   HX - HEAT INDEX
  VSB - VISIBILITY





USA.gov is the U.S. government's official web portal to all federal, state and local government web resources and services.